| time (UTC) | temp C | wind direction | speed KPH | gust KPH | rain 1hr cm | rain 24hr cm | rain mn cm | humidity % | barometer mb |
| 20260505070100 | 12 | 122 | 1.6 | 8.0 | 0.00 | 0.00 | 0.00 | 86 | 1009.4 |
| 20260505064554 | 12 | 118 | 1.6 | 11.3 | 0.00 | 0.00 | 0.00 | 85 | 1009.4 |
| 20260505063053 | 13 | 146 | 3.2 | 11.3 | 0.00 | 0.00 | 0.00 | 85 | 1009.5 |
| 20260505061555 | 13 | 136 | 3.2 | 14.5 | 0.00 | 0.00 | 0.00 | 84 | 1009.6 |
| 20260505060058 | 13 | 182 | 4.8 | 16.1 | 0.00 | 0.00 | 0.00 | 84 | 1009.6 |
| 20260505054559 | 13 | 138 | 6.4 | 19.3 | 0.00 | 0.00 | 0.00 | 84 | 1009.6 |
| 20260505053050 | 13 | 142 | 8.0 | 20.9 | 0.00 | 0.00 | 0.00 | 83 | 1009.7 |
| 20260505051549 | 13 | 126 | 8.0 | 20.9 | 0.00 | 0.00 | 0.00 | 83 | 1009.8 |
| 20260505050123 | 13 | 126 | 8.0 | 19.3 | 0.00 | 0.00 | 0.00 | 83 | 1010.0 |
| 20260505041603 | 13 | 124 | 8.0 | 16.1 | 0.00 | 0.00 | 0.00 | 82 | 1010.2 |
| 20260505040058 | 13 | 117 | 9.7 | 20.9 | 0.00 | 0.00 | 0.00 | 82 | 1010.3 |
| 20260505034549 | 13 | 132 | 9.7 | 20.9 | 0.00 | 0.00 | 0.00 | 81 | 1010.3 |
| 20260505033050 | 13 | 106 | 11.3 | 30.6 | 0.00 | 0.00 | 0.00 | 81 | 1010.3 |
| 20260505031549 | 13 | 143 | 8.0 | 25.7 | 0.00 | 0.00 | 0.00 | 81 | 1010.4 |
| 20260505030052 | 13 | 119 | 9.7 | 22.5 | 0.00 | 0.00 | 0.00 | 81 | 1010.5 |
| 20260505024550 | 13 | 145 | 8.0 | 19.3 | 0.00 | 0.00 | 0.00 | 79 | 1010.6 |
| 20260505023054 | 14 | 135 | 6.4 | 22.5 | 0.00 | 0.00 | 0.00 | 79 | 1010.6 |
| 20260505021551 | 14 | 148 | 6.4 | 22.5 | 0.00 | 0.00 | 0.00 | 78 | 1010.6 |
| 20260505020051 | 15 | 181 | 3.2 | 14.5 | 0.00 | 0.00 | 0.00 | 76 | 1010.6 |
| 20260505014605 | 15 | 167 | 8.0 | 22.5 | 0.00 | 0.00 | 0.00 | 74 | 1010.4 |
| 20260505013055 | 15 | 84 | 8.0 | 22.5 | 0.00 | 0.00 | 0.00 | 74 | 1010.4 |
| 20260505011600 | 15 | 45 | 6.4 | 19.3 | 0.00 | 0.00 | 0.00 | 74 | 1010.4 |
| 20260505010058 | 15 | 148 | 4.8 | 20.9 | 0.00 | 0.00 | 0.00 | 74 | 1010.1 |
| 20260505004551 | 15 | 147 | 9.7 | 24.1 | 0.00 | 0.00 | 0.00 | 74 | 1010.0 |
| 20260505003053 | 15 | 112 | 4.8 | 17.7 | 0.00 | 0.00 | 0.00 | 75 | 1010.1 |
| 20260505001603 | 15 | 117 | 9.7 | 24.1 | 0.00 | 0.00 | 0.00 | 75 | 1009.9 |
| 20260505000122 | 15 | 184 | 9.7 | 24.1 | 0.00 | 0.00 | 0.00 | 75 | 1009.8 |
| 20260504234607 | 15 | 251 | 9.7 | 22.5 | 0.00 | 0.00 | 0.00 | 75 | 1009.9 |
| 20260504233103 | 15 | 130 | 9.7 | 22.5 | 0.00 | 0.00 | 0.00 | 75 | 1009.8 |
| 20260504231557 | 15 | 153 | 8.0 | 22.5 | 0.00 | 0.00 | 0.00 | 76 | 1009.7 |
| 20260504230057 | 15 | 149 | 9.7 | 25.7 | 0.00 | 0.00 | 0.00 | 76 | 1009.7 |
| 20260504224606 | 15 | 144 | 11.3 | 25.7 | 0.00 | 0.00 | 0.00 | 75 | 1009.6 |
| 20260504223055 | 15 | 134 | 11.3 | 20.9 | 0.00 | 0.00 | 0.00 | 74 | 1009.8 |
| 20260504221552 | 16 | 174 | 12.9 | 27.4 | 0.00 | 0.00 | 0.00 | 73 | 1009.6 |
| 20260504220058 | 16 | 137 | 12.9 | 30.6 | 0.00 | 0.00 | 0.00 | 71 | 1009.6 |
| 20260504214550 | 16 | 112 | 9.7 | 29.0 | 0.00 | 0.00 | 0.00 | 71 | 1009.6 |
| 20260504213119 | 16 | 172 | 17.7 | 29.0 | 0.00 | 0.00 | 0.00 | 70 | 1009.6 |
| 20260504211555 | 16 | 103 | 11.3 | 32.2 | 0.00 | 0.00 | 0.00 | 71 | 1009.6 |
| 20260504210055 | 17 | 120 | 11.3 | 32.2 | 0.00 | 0.00 | 0.00 | 70 | 1009.6 |
| 20260504204554 | 17 | 109 | 11.3 | 30.6 | 0.00 | 0.00 | 0.00 | 68 | 1009.5 |
| 20260504203112 | 17 | 159 | 8.0 | 24.1 | 0.00 | 0.00 | 0.00 | 71 | 1009.5 |
| 20260504201555 | 16 | 119 | 12.9 | 29.0 | 0.00 | 0.00 | 0.00 | 71 | 1009.6 |
| 20260504200055 | 16 | 107 | 16.1 | 30.6 | 0.00 | 0.00 | 0.00 | 71 | 1009.8 |
| 20260504194600 | 16 | 147 | 9.7 | 30.6 | 0.00 | 0.00 | 0.00 | 75 | 1009.8 |
| 20260504193059 | 16 | 185 | 12.9 | 25.7 | 0.00 | 0.00 | 0.00 | 73 | 1009.8 |
| 20260504191549 | 16 | 152 | 14.5 | 27.4 | 0.00 | 0.00 | 0.00 | 70 | 1010.0 |
| 20260504190113 | 16 | 126 | 12.9 | 29.0 | 0.00 | 0.00 | 0.00 | 70 | 1010.2 |
| 20260504184605 | 17 | 136 | 16.1 | 27.4 | 0.00 | 0.00 | 0.00 | 68 | 1010.3 |
| 20260504183053 | 17 | 184 | 14.5 | 29.0 | 0.00 | 0.00 | 0.00 | 68 | 1010.6 |
| 20260504181549 | 17 | 165 | 8.0 | 27.4 | 0.00 | 0.00 | 0.00 | 70 | 1010.6 |
| 20260504180055 | 17 | 119 | 11.3 | 25.7 | 0.00 | 0.00 | 0.00 | 70 | 1010.9 |
| 20260504174601 | 17 | 135 | 8.0 | 24.1 | 0.00 | 0.00 | 0.00 | 70 | 1011.2 |
| 20260504173057 | 17 | 175 | 12.9 | 27.4 | 0.00 | 0.00 | 0.00 | 69 | 1011.2 |
| 20260504171552 | 18 | 175 | 11.3 | 25.7 | 0.00 | 0.00 | 0.00 | 67 | 1011.3 |
| 20260504140106 | 17 | 195 | 6.4 | 24.1 | 0.00 | 0.00 | 0.00 | 61 | 1012.5 |
| 20260504110116 | 9 | 145 | 4.8 | 11.3 | 0.00 | 0.00 | 0.00 | 76 | 1013.7 |
| 20260504090117 | 9 | 177 | 3.2 | 14.5 | 0.00 | 0.00 | 0.00 | 70 | 1013.5 |
| 20260504081555 | 9 | 140 | 3.2 | 9.7 | 0.00 | 0.00 | 0.00 | 69 | 1013.5 |